Hourly Weather Roundup
Issued by NWS Central Illinois

Home | Current Version | Previous Version | Text Only | Print | Product List | Glossary On
Versions: 1 2 3 4 5 6 7 8 9 10 11 12 13 14 15 16 17 18 19 20 21 22 23 24 25 26 27 28 29 30 31 32 33 34 35 36 37 38 39 40 41 42 43 44 45 46 47 48 49 50
000
NZUS43 KILX 020110
HWRILX

AREA WEATHER ROUNDUP
NATIONAL WEATHER SERVICE, LINCOLN IL
800 PM CDT FRI AUG 01 2014


CITY           SKY/WX    TMP DP  RH WIND       PRES   REMARKS
BLOOMINGTON    MOCLDY    66  61  84 CALM      30.10S
CHAMPAIGN      CLOUDY    68  63  84 W6        30.09F
DECATUR        MOCLDY    66  62  87 CALM      30.09F
FLORA          MOCLDY    66  62  87 NW3       30.10S
GALESBURG      MOCLDY    68  62  79 S8        30.10R
JACKSONVILLE   MOCLDY    71  65  83 CALM      30.09R
LACON          CLOUDY    68  61  77 CALM      30.09R
LAWRENCEVILLE  MOCLDY    72  64  76 NW15      30.07R
LITCHFIELD     MOCLDY    68  62  79 E6        30.08R
$$


CITY           SKY/WX    TMP DP  RH WIND       PRES   REMARKS
LINCOLN        MOCLDY    68  62  80 CALM      30.05F
MACOMB         CLOUDY    66  60  81 E13G22    30.12R
MATTOON        LGT RAIN  65  64  97 S5        30.08F FOG
MT CARMEL AP   MOCLDY    73  64  73 NW13      30.06R
OLNEY-NOBLE AP LGT RAIN  68  59  73 N9        30.08R
PARIS          CLOUDY    68  64  86 W8        30.10R
PEORIA         CLOUDY    68  63  84 CALM      30.10R
PONTIAC        MOCLDY    66  64  94 E5        30.09S
RANTOUL        CLOUDY    71  62  73 CALM      30.10S
ROBINSON       TSTM      69  65  86 N3        30.11R
SPRINGFIELD    MOCLDY    70  63  78 SE5       30.08S
TAYLORVILLE    MOCLDY    64  61  88 SE6       30.07F
$$

...REGIONAL REPORTS...


CITY           SKY/WX    TMP DP  RH WIND       PRES   REMARKS
CHICAGO O`HARE MOCLDY    72  57  59 SW9       30.09R
KANKAKEE       CLOUDY    66  63  87 CALM      30.08S
MOLINE         MOCLDY    72  67  84 W3        30.06S
MOUNT VERNON   CLOUDY    68  59  73 N9        30.07F
PITTSFIELD     MOCLDY    69  65  85 CALM      30.09R
QUINCY         PTCLDY    71  65  81 SW5       30.07R
ROCKFORD       TSTM      64  57  78 NW20G29   30.13R VSB 1
$$


CITY           SKY/WX    TMP DP  RH WIND       PRES   REMARKS
BURLINGTON     TSTM      73  63  70 VRB3G25   30.06R
CEDAR RAPIDS   PTCLDY    76  68  76 CALM      30.06R
DES MOINES     PTCLDY    79  58  48 E5        30.06R HX  80
KIRKSVILLE     CLEAR     75  66  73 CALM      30.08R
OTTUMWA        CLEAR     77  63  61 NE5       30.06R
ST LOUIS       CLOUDY    74  65  73 E6        30.07S
$$


CITY           SKY/WX    TMP DP  RH WIND       PRES   REMARKS
TERRE HAUTE    CLOUDY    72  65  78 N6        30.08R
EVANSVILLE     PTCLDY    79  60  52 N3        30.04S HX  80
INDIANAPOLIS   CLOUDY    68  61  78 SE6       30.07F
LAFAYETTE      CLOUDY    65  63  93 W6        30.07F
MADISON        LGT RAIN  64  57  78 NE10      30.09F
MILWAUKEE      TSTM      66  55  67 S10       30.10F
$$





USA.gov is the U.S. government's official web portal to all federal, state and local government web resources and services.